Airfield :
LOGIN :

Register | Disclaimer

   EN    FR    IT 

 










Legend :    VFR   Marginal VFR   IFR   Intensive IFR   Very Intensive IFR
Visi :
Ceiling :
>= 8 km
>= 3000ft
5 to 8 km
1000 to 3000 ft
1500m to 5 km
500 to 1000 ft
800 to 1500m
200 to 500 ft
< 800m
< 200 ft
Symbols :   Thunderstorms  Fog  Heavy snow  Heavy precipitations  Wind > 20 kt
SIGMETs :     Misc.  Thunderstorms  Icing  Turbulence  Mountain Waves  Volcanic Ashes







- Airport Elevation : 1106 ft
- Download approach charts


LFSO - Nancy / Ochey

CURRENT METAR :
  • 211200Z AUTO VRB03KT CAVOK 20/10 Q1024 NOSIG

EXPIRED METARs :
  • 211130Z AUTO VRB02KT 9999 FEW044 BKN066 OVC088 20/10 Q1024 NOSIG
  • 211100Z AUTO VRB03KT 9999 -RA BKN040 OVC068 19/10 Q1024 NOSIG
  • 211030Z AUTO VRB02KT CAVOK 19/10 Q1025 NOSIG
  • 211000Z AUTO 00000KT CAVOK 19/10 Q1025 NOSIG
  • 210930Z AUTO VRB01KT CAVOK 18/10 Q1025 NOSIG

TAF TAF LFSO
Valid from the 21 at 09:00 until the 22 at 09:00 UTC


210800Z 2109/2209 04003KT CAVOK
No reported NOTAMs for that airfield.



MET'MAP, your aeronautical weather chart ! - Copyright ORBIFLY December 2007 - Disclaimer

ORBIFLY MET'MAP TEAM :

Programming & Development : Alexandra Zaïnal
Concept & Development : Baudouin d'Aumeries
Co-Development & Prog : Marc-Olivier Méhu
Technical & hardware support : Manuel Goepfert

Contact : metmap@orbifly.com




SOURCES & CREDITS :

   NOAA